Tracking 28794 objects as of 19-Apr-2024
HD Live streaming from Space Station
objects crossing your sky now

CZ-2C DEB

Track CZ-2C DEB now!
10-day predictions


NORAD ID: 43534
Int'l Code: 2018-056F
Perigee: 561.1 km
Apogee: 591.5 km
Inclination: 98.0 °
Period: 96.0 minutes
Semi major axis: 6947 km
RCS: Unknown
Launch date: July 9, 2018
Source: People's Republic of China (PRC)
Launch site: Jiuquan Satellite Launch Center, China (JSC)

Note: This is SATELLITE DEBRIS
Your satellite tracking list
Your tracking list is empty




NASA's NSSDC Master Catalog

Two Line Element Set (TLE):
1 43534U 18056F   24110.34611195  .00019147  00000-0  15634-2 0  9990
2 43534  98.0448 239.2492 0021937 182.9395 177.1701 14.99266514314351
Source of the keplerian elements: AFSPC